When you browse on this site, cookies collect data to enhance your experience and personalize the content and advertising you see.
Visit our Privacy Policy to learn more. By continuing to use the site, you agree to this use of cookies and data.
  • In Österreich
  • Länderverzeichnis
  • Für 7 Tage
  • Wassertemperatur
  • Satellitenkarten
  • Wetterkarte
  • News
  • Widgets
  • user-avatar
    Anmelden

    Stündliche Wetter Kazaryns'ke

    Heute, 17 Februar, Sonntag

    Zeit Temperatur Niederschläge Wind Luftdruck Luftfeuchtigkeit
    00:00 +1°C° 0 mm 2 m/S 758 mmHg 92%
    01:00 +1°C° 0 mm 2 m/S 758 mmHg 92%
    02:00 +1°C° 0 mm 2 m/S 758 mmHg 90%
    03:00 +1°C° 0 mm 2 m/S 758 mmHg 90%
    04:00 0°C° 0 mm 3 m/S 757 mmHg 89%
    05:00 0°C° 0 mm 3 m/S 757 mmHg 89%
    06:00 0°C° 0 mm 3 m/S 757 mmHg 88%
    07:00 0°C° 0 mm 3 m/S 757 mmHg 88%
    08:00 +1°C° 0 mm 3 m/S 757 mmHg 86%
    09:00 +1°C° 0 mm 4 m/S 756 mmHg 82%
    10:00 +4°C° 0 mm 4 m/S 756 mmHg 78%
    11:00 +6°C° 0 mm 5 m/S 756 mmHg 74%
    12:00 +7°C° 0 mm 5 m/S 756 mmHg 71%
    13:00 +8°C° 0 mm 6 m/S 755 mmHg 67%
    14:00 +9°C° 0 mm 6 m/S 755 mmHg 64%
    15:00 +8°C° 0 mm 6 m/S 755 mmHg 65%
    16:00 +7°C° 0 mm 5 m/S 754 mmHg 67%
    17:00 +7°C° 0 mm 5 m/S 754 mmHg 68%
    18:00 +6°C° 0 mm 4 m/S 754 mmHg 71%
    19:00 +5°C° 0 mm 4 m/S 754 mmHg 73%
    20:00 +4°C° 0 mm 4 m/S 754 mmHg 75%
    21:00 +4°C° 0 mm 4 m/S 754 mmHg 78%
    22:00 +3°C° 0 mm 4 m/S 755 mmHg 81%
    23:00 +3°C° 0 mm 4 m/S 755 mmHg 84%

    Morgen, 18 Februar, Montag

    Zeit Temperatur Niederschläge Wind Luftdruck Luftfeuchtigkeit
    00:00 +3°C° 0 mm 4 m/S 755 mmHg 85%
    01:00 +1°C° 0 mm 4 m/S 755 mmHg 87%
    02:00 +1°C° 0 mm 4 m/S 756 mmHg 88%
    03:00 +1°C° 0 mm 4 m/S 756 mmHg 88%
    04:00 +1°C° 0 mm 4 m/S 756 mmHg 87%
    05:00 +1°C° 0 mm 4 m/S 756 mmHg 87%
    06:00 +1°C° 0 mm 4 m/S 756 mmHg 88%
    07:00 +2°C° 0 mm 3 m/S 756 mmHg 89%
    08:00 +1°C° 0 mm 3 m/S 757 mmHg 90%
    09:00 +1°C° 0 mm 4 m/S 757 mmHg 82%
    10:00 +3°C° 0 mm 4 m/S 757 mmHg 73%
    11:00 +3°C° 0 mm 5 m/S 757 mmHg 65%
    12:00 +5°C° 0 mm 5 m/S 757 mmHg 61%
    13:00 +5°C° 0 mm 5 m/S 757 mmHg 57%
    14:00 +5°C° 0 mm 4 m/S 757 mmHg 54%
    15:00 +5°C° 0 mm 4 m/S 758 mmHg 56%
    16:00 +4°C° 0 mm 4 m/S 758 mmHg 59%
    17:00 +3°C° 0 mm 3 m/S 758 mmHg 62%
    18:00 +2°C° 0 mm 3 m/S 758 mmHg 67%
    19:00 +1°C° 0 mm 3 m/S 758 mmHg 72%
    20:00 +1°C° 0 mm 2 m/S 759 mmHg 77%
    21:00 +1°C° 0 mm 2 m/S 759 mmHg 77%
    22:00 -1°C° 0 mm 2 m/S 759 mmHg 77%
    23:00 -1°C° 0 mm 2 m/S 760 mmHg 76%

    übermorgen, 19 Februar, Dienstag

    Zeit Temperatur Niederschläge Wind Luftdruck Luftfeuchtigkeit
    00:00 -1°C° 0 mm 2 m/S 760 mmHg 76%
    01:00 -2°C° 0 mm 2 m/S 760 mmHg 75%
    02:00 -2°C° 0 mm 2 m/S 760 mmHg 75%
    03:00 -2°C° 0 mm 2 m/S 760 mmHg 76%
    04:00 -2°C° 0 mm 2 m/S 760 mmHg 77%
    05:00 0°C° 0 mm 1 m/S 760 mmHg 78%
    06:00 -2°C° 0 mm 2 m/S 760 mmHg 77%
    07:00 -2°C° 0 mm 2 m/S 761 mmHg 76%
    08:00 -2°C° 0 mm 2 m/S 761 mmHg 76%
    09:00 -1°C° 0 mm 2 m/S 761 mmHg 68%
    10:00 +1°C° 0 mm 2 m/S 761 mmHg 61%
    11:00 +2°C° 0 mm 2 m/S 761 mmHg 53%
    12:00 +2°C° 0 mm 3 m/S 761 mmHg 50%
    13:00 +2°C° 0 mm 3 m/S 761 mmHg 47%
    14:00 +3°C° 0 mm 3 m/S 760 mmHg 43%
    15:00 +3°C° 0 mm 3 m/S 760 mmHg 47%
    16:00 +3°C° 0 mm 2 m/S 760 mmHg 50%
    17:00 +3°C° 0 mm 2 m/S 759 mmHg 53%
    18:00 +1°C° 0 mm 3 m/S 759 mmHg 58%
    19:00 0°C° 0 mm 3 m/S 759 mmHg 63%
    20:00 -1°C° 0 mm 3 m/S 759 mmHg 68%
    21:00 -1°C° 0 mm 3 m/S 758 mmHg 71%
    22:00 -1°C° 0 mm 3 m/S 758 mmHg 74%
    23:00 -2°C° 0 mm 3 m/S 758 mmHg 76%

    20 Februar, Mittwoch

    Zeit Temperatur Niederschläge Wind Luftdruck Luftfeuchtigkeit
    00:00 -1°C° 0 mm 3 m/S 758 mmHg 78%
    01:00 -1°C° 0 mm 3 m/S 757 mmHg 79%
    02:00 -1°C° 0 mm 3 m/S 757 mmHg 80%
    03:00 -1°C° 0 mm 3 m/S 756 mmHg 79%
    04:00 -1°C° 0 mm 3 m/S 756 mmHg 79%
    05:00 -1°C° 0 mm 3 m/S 755 mmHg 79%
    06:00 0°C° 0 mm 3 m/S 755 mmHg 80%
    07:00 0°C° 0 mm 3 m/S 755 mmHg 81%
    08:00 +1°C° 0 mm 3 m/S 755 mmHg 82%
    09:00 +2°C° 0 mm 3 m/S 755 mmHg 82%
    10:00 +3°C° 0 mm 4 m/S 755 mmHg 83%
    11:00 +4°C° 0 mm 4 m/S 755 mmHg 84%
    12:00 +4°C° 0 mm 4 m/S 755 mmHg 82%
    13:00 +5°C° 0 mm 3 m/S 754 mmHg 79%
    14:00 +7°C° 0 mm 3 m/S 754 mmHg 77%
    15:00 +5°C° 0 mm 3 m/S 754 mmHg 78%
    16:00 +6°C° 0 mm 2 m/S 754 mmHg 79%
    17:00 +6°C° 0 mm 2 m/S 754 mmHg 80%
    18:00 +5°C° 0 mm 2 m/S 754 mmHg 81%
    19:00 +4°C° 0 mm 3 m/S 754 mmHg 83%
    20:00 +4°C° 0 mm 3 m/S 754 mmHg 84%
    21:00 +3°C° 0 mm 3 m/S 755 mmHg 85%
    22:00 +2°C° 0 mm 3 m/S 755 mmHg 86%
    23:00 +2°C° 0 mm 2 m/S 755 mmHg 87%

    21 Februar, Donnerstag

    Zeit Temperatur Niederschläge Wind Luftdruck Luftfeuchtigkeit
    00:00 +1°C° 0 mm 3 m/S 755 mmHg 86%
    01:00 +1°C° 0 mm 3 m/S 755 mmHg 86%
    02:00 +1°C° 0 mm 3 m/S 755 mmHg 86%
    03:00 0°C° 0 mm 4 m/S 754 mmHg 87%
    04:00 0°C° 0 mm 4 m/S 754 mmHg 88%
    05:00 0°C° 0 mm 4 m/S 754 mmHg 88%
    06:00 0°C° 0 mm 5 m/S 754 mmHg 84%
    07:00 +1°C° 0 mm 5 m/S 755 mmHg 80%
    08:00 +1°C° 0 mm 5 m/S 755 mmHg 76%
    09:00 +2°C° 0 mm 6 m/S 755 mmHg 71%
    10:00 +3°C° 0 mm 7 m/S 755 mmHg 65%
    11:00 +4°C° 0 mm 8 m/S 755 mmHg 59%
    12:00 +4°C° 0 mm 8 m/S 755 mmHg 58%
    13:00 +4°C° 0 mm 8 m/S 755 mmHg 57%
    14:00 +4°C° 0 mm 8 m/S 754 mmHg 57%
    15:00 +4°C° 0 mm 8 m/S 754 mmHg 57%
    16:00 +2°C° 0 mm 8 m/S 754 mmHg 57%
    17:00 +2°C° 0 mm 8 m/S 754 mmHg 57%
    18:00 +3°C° 0 mm 7 m/S 755 mmHg 59%
    19:00 +2°C° 0 mm 6 m/S 755 mmHg 60%
    20:00 +2°C° 0 mm 5 m/S 756 mmHg 61%
    21:00 +1°C° 0 mm 4 m/S 756 mmHg 62%
    22:00 -1°C° 0 mm 4 m/S 757 mmHg 63%
    23:00 -1°C° 0 mm 3 m/S 757 mmHg 64%

    22 Februar, Freitag

    Zeit Temperatur Niederschläge Wind Luftdruck Luftfeuchtigkeit
    00:00 -1°C° 0 mm 3 m/S 758 mmHg 65%
    01:00 -2°C° 0 mm 2 m/S 758 mmHg 65%
    02:00 -2°C° 0 mm 2 m/S 758 mmHg 66%
    03:00 -2°C° 0 mm 2 m/S 758 mmHg 65%
    04:00 -2°C° 0 mm 2 m/S 758 mmHg 64%
    05:00 -2°C° 0 mm 2 m/S 758 mmHg 63%
    06:00 -2°C° 0 mm 2 m/S 758 mmHg 60%
    07:00 -2°C° 0 mm 3 m/S 758 mmHg 56%
    08:00 -2°C° 0 mm 3 m/S 758 mmHg 53%
    09:00 -1°C° 0 mm 3 m/S 758 mmHg 49%
    10:00 -2°C° 0 mm 4 m/S 758 mmHg 46%
    11:00 -1°C° 0 mm 4 m/S 759 mmHg 42%
    12:00 -1°C° 0 mm 4 m/S 758 mmHg 42%
    13:00 -1°C° 0 mm 5 m/S 758 mmHg 42%
    14:00 0°C° 0 mm 5 m/S 758 mmHg 42%
    15:00 -1°C° 0 mm 5 m/S 758 mmHg 45%
    16:00 -2°C° 0 mm 5 m/S 759 mmHg 47%
    17:00 -3°C° 0 mm 6 m/S 759 mmHg 50%
    18:00 -4°C° 0 mm 6 m/S 760 mmHg 50%
    19:00 -6°C° 0 mm 7 m/S 760 mmHg 50%
    20:00 -7°C° 0 mm 7 m/S 761 mmHg 49%
    21:00 -7°C° 0 mm 7 m/S 761 mmHg 49%
    22:00 -8°C° 0 mm 7 m/S 762 mmHg 49%
    23:00 -9°C° 0 mm 7 m/S 762 mmHg 49%
    Mehr zeigen